Flag for U.S.A. Weather past 2 weeks in Kailua-Kona, Hawaii, U.S.A.

Now
85 °F

Scattered clouds.


Feels Like: 92 °F
Forecast: 73 / 84 °F
Wind: 7 mph from West

Location: Keahole Airport

Current Time: Aug 2, 2015 at 10:27:49 AM

Latest Report: Aug 2, 2015 at 9:53 AM


Visibility: 10 mi

Pressure: 29.85 "Hg

Humidity: 68%

Dew point: 73 °F

Location of Kailua-KonaLocation

Historic Weather in Kailua-Kona — Graph

°F

Kailua-Kona temperature yesterday

Maximum temperature yesterday: 92 °F (at 3:53 PM)
Minimum temperature yesterday: 78 °F (at 4:53 AM)
Average temperature yesterday: 84 °F

Past Weeks' High & Low Weather Summary

 TemperatureHumidityPressure
High92 °F (Aug 1, 3:53 PM)89% (Jul 22, 9:36 PM)29.98 "Hg (Jul 22, 9:36 PM)
Low76 °F (Jul 23, 12:53 AM)45% (Jul 19, 8:53 AM)29.81 "Hg (Aug 1, 4:53 PM)
Average83 °F67%29.91 "Hg
* Reported Jul 18 8:53 AM — Aug 2 8:53 AM, Kailua-Kona, Weather by CustomWeather, © 2015

Note: Actual official high and low records may vary slightly from our data, if they occured in-between our weather recording intervals... More about our weather records

Advertising

Kailua-Kona weather history for previous 24 hours

 ConditionsComfort  
Time TempWeatherWind HumidityBarometerVisibility
8:53 AM
Sun, Aug 2
85 °FScattered clouds.7 mph65%29.85 "Hg10 mi
7:53 AM84 °FPartly sunny.5 mph70%29.86 "Hg10 mi
6:53 AM82 °FPartly sunny.7 mph65%29.85 "Hg10 mi
5:53 AM81 °FOvercast.No wind65%29.83 "Hg10 mi
4:53 AM80 °FPassing clouds.No wind67%29.83 "Hg10 mi
3:53 AM80 °FClear.No wind69%29.83 "Hg10 mi
2:53 AM82 °FPassing clouds.3 mph65%29.84 "Hg10 mi
1:53 AM82 °FPassing clouds.3 mph67%29.85 "Hg10 mi
12:53 AM83 °FOvercast.5 mph68%29.86 "Hg10 mi
11:53 PM
Sat, Aug 1
82 °FPassing clouds.9 mph67%29.87 "Hg10 mi
10:53 PM82 °FPassing clouds.5 mph72%29.88 "Hg10 mi
9:53 PM84 °FClear.9 mph70%29.88 "Hg10 mi
8:53 PM84 °FPassing clouds.6 mph70%29.86 "Hg10 mi
7:53 PM84 °FPartly cloudy.8 mph70%29.85 "Hg10 mi
6:53 PM85 °FBroken clouds.9 mph65%29.84 "Hg10 mi
5:53 PM86 °FOvercast.7 mph63%29.83 "Hg10 mi
4:53 PM90 °FScattered clouds.10 mph52%29.81 "Hg10 mi
3:53 PM92 °FScattered clouds.15 mph49%29.82 "Hg10 mi
2:53 PM90 °FBroken clouds.12 mph54%29.83 "Hg10 mi
1:53 PM90 °FScattered clouds.18 mph59%29.82 "Hg10 mi
12:53 PM90 °FScattered clouds.23 mph57%29.85 "Hg10 mi
11:53 AM90 °FPassing clouds.18 mph57%29.87 "Hg10 mi
10:53 AM89 °FSunny.15 mph52%29.89 "Hg10 mi
Weather by CustomWeather, © 2015

See weather overviewHow to use our weather pages